DELTA 1 DEB, 7161

Orbit data source: Space-Track

DELTA 1 DEB, 7161 is space debris in SSO originally from a launch on Tue, 06 Nov 1973 UTC launched from the Air Force Western Test Range (AFWTR). Debris objects in space refer to the collection of defunct objects orbiting the Earth. Examples of debris include non-operational satellites, rocket bodies, and fragments generated from explosions, collisions, or faulty payload assembly.

Loading next visibility...
Identifier
7161, 1973-086DZ
Orbit
SSO
Country
Flag of USUS
Related business
Manufacturer
Unknown
Mission
Spacecraft
Bus & Motor
Unknown
Mass
Unknown
Launch date (UTC)
1973-11-06 (53 years ago)
Launch vehicle
Unknown
Launch site
Air Force Western Test Range (AFWTR)
Object type
Payload
Rocket body
Debris
Shape & HBR
Unknown shape, 0.2 m
Radar Cross Section
Medium (>0.1 m² and <1 m²)

Expand to show TLE details & history
Last TLE update: 2 days ago

TLE from 2 days ago
0 DELTA 1 DEB
1 07161U 73086DZ  26205.33532513 -.00000027  00000-0  13997-3 0  9991
2 07161 102.2061 234.6014 0015261  55.8193 315.6861 12.41258100387401
Epoch: 2026-07-24T08:02Z
TLE epoch observation values (Epoch: 2026-07-24T08:02:52.091Z)
Latitude
11.08069°
Longitude
169.40478°
Altitude
1,494.473 km
Speed
7.122 km/s
True Right ascension
15h 28m 44s
True Declination
11° 01' 19"
Sunlit
Object was in daylight at epoch
Visualization orbit readout
Latitude
Unknown
Longitude
Unknown
Altitude
Unknown
Speed
Unknown
Apparent Right ascension
Unknown
Apparent Declination
Unknown
Sunlit
N/A
Visualization observer readout
Local Sidereal Time
23:15:59
Azimuth
Unknown
Elevation
Unknown
Doppler factor
Unknown
Orbital elements
Apogee altitude
1,510.881 km
Perigee altitude
1,486.839 km
Semi-major axis
7,876.997 km
Eccentricity
0.00153
Inclination
102.2061°
RAAN
234.6014°
Arg. of periapsis
55.8193°
True anomaly
315.56377°
Mean anomaly
315.6861°
Eccentric anomaly
315.62495°
Mean motion
3.10458 °/min
Orbital period
115.96 mins
BSTAR
0.00013997
Loading maneuver chart data...
Computing Atmospheric mass density...
Loading historical data...
Loading historical data...
Loading historical data...
Loading historical data...
Loading historical data...
Loading historical data...
Loading historical data...

Documentation

Showing up to 5 results
|